EW1898 Weather Reports


Display with metric or nautical units.
time (UTC)temp
F
wind
direction
speed
MPH
gust
MPH
rain 1hr
in
rain 24hr
in
rain mn
in
humidity
%
barometer
mb
20190917064538 50 258 0.0 0.0 0.00 0.00 0.00 87 1018.5
20190917063106 51 258 0.0 0.0 0.00 0.00 0.00 86 1018.4
20190917061614 51 258 0.0 0.0 0.00 0.00 0.00 87 1018.4
20190917060120 51 259 0.0 0.0 0.00 0.00 0.00 87 1018.5
20190917054541 51 258 0.0 0.0 0.00 0.00 0.00 86 1018.4
20190917053034 52 258 0.0 1.0 0.00 0.00 0.00 85 1018.4
20190917051545 52 258 0.0 1.0 0.00 0.00 0.00 86 1018.5
20190917050033 52 258 0.0 1.0 0.00 0.00 0.00 87 1018.4
20190917044545 52 258 0.0 0.0 0.00 0.00 0.00 86 1018.3
20190917041546 52 258 0.0 0.0 0.00 0.00 0.00 86 1018.3
20190917040024 52 258 0.0 1.0 0.00 0.00 0.00 86 1018.3
20190917034542 52 258 0.0 0.0 0.00 0.00 0.00 87 1018.3
20190917033023 52 258 0.0 0.0 0.00 0.00 0.00 87 1018.3
20190917031538 52 258 0.0 0.0 0.00 0.00 0.00 88 1018.2
20190917030015 52 258 0.0 1.0 0.00 0.00 0.00 89 1018.3
20190917024516 51 258 0.0 0.0 0.00 0.00 0.00 90 1018.2
20190917023040 52 258 0.0 0.0 0.00 0.00 0.00 88 1018.1
20190917021513 52 258 0.0 0.0 0.00 0.00 0.00 86 1018.0
20190917020024 53 258 0.0 0.0 0.00 0.00 0.00 84 1017.9
20190917014502 54 258 0.0 0.0 0.00 0.00 0.00 82 1017.8
20190917013008 56 258 0.0 0.0 0.00 0.00 0.00 77 1017.6
20190917011723 57 258 0.0 1.0 0.00 0.00 0.00 73 1017.5
20190917010136 57 258 0.0 1.0 0.00 0.00 0.00 72 1017.5
20190917004640 58 258 0.0 1.0 0.00 0.00 0.00 72 1017.4
20190917003333 58 258 0.0 0.0 0.00 0.00 0.00 70 1017.4
20190917001748 59 258 0.0 1.0 0.00 0.00 0.00 69 1017.3
20190917000153 60 272 0.0 1.0 0.00 0.00 0.00 67 1017.1
20190916234723 60 272 0.0 0.0 0.00 0.00 0.00 67 1016.9
20190916233217 60 273 0.0 1.0 0.00 0.00 0.00 68 1016.8
20190916231911 61 272 0.0 0.0 0.00 0.00 0.00 66 1016.6
20190916230200 62 273 0.0 0.0 0.00 0.00 0.00 65 1016.6
20190916224655 63 272 0.0 0.0 0.00 0.00 0.00 64 1016.5
20190916223213 64 272 0.0 1.0 0.00 0.00 0.00 62 1016.4
20190916221736 64 277 0.0 2.0 0.00 0.00 0.00 61 1016.2
20190916220134 65 271 0.0 3.0 0.00 0.00 0.00 61 1016.1
20190916214624 66 291 0.0 2.0 0.00 0.00 0.00 59 1016.0
20190916213201 66 150 0.0 3.0 0.00 0.00 0.00 58 1015.9
20190916211648 66 298 1.0 4.0 0.00 0.00 0.00 57 1015.7
20190916210239 67 310 2.0 4.0 0.00 0.00 0.00 56 1015.7
20190916204804 67 269 0.0 4.0 0.00 0.00 0.00 57 1015.7
20190916203216 67 273 1.0 3.0 0.00 0.00 0.00 57 1015.6
20190916201710 67 298 1.0 4.0 0.00 0.00 0.00 58 1015.8
20190916200135 66 301 2.0 5.0 0.00 0.00 0.00 56 1015.8
20190916194608 66 296 1.0 4.0 0.00 0.00 0.00 57 1015.9
20190916193150 66 295 2.0 5.0 0.00 0.00 0.00 56 1015.9
20190916191631 66 284 2.0 8.0 0.00 0.00 0.00 57 1015.9
20190916190141 66 268 3.0 7.0 0.00 0.00 0.00 57 1015.9
20190916184714 66 301 2.0 7.0 0.00 0.00 0.00 56 1016.0
20190916183150 66 277 1.0 5.0 0.00 0.00 0.00 57 1016.0
20190916181638 66 274 1.0 4.0 0.00 0.00 0.00 58 1016.2
20190916180151 65 291 2.0 8.0 0.00 0.00 0.00 57 1016.3
20190916174553 65 278 2.0 6.0 0.00 0.00 0.00 57 1016.3
20190916173100 65 259 1.0 9.0 0.00 0.00 0.00 59 1016.3
20190916171653 64 262 0.0 6.0 0.00 0.00 0.00 58 1016.5
20190916170101 64 290 1.0 4.0 0.00 0.00 0.00 61 1016.6
20190916164600 64 324 2.0 6.0 0.00 0.00 0.00 60 1016.7
20190916163048 63 285 1.0 5.0 0.00 0.00 0.00 60 1016.9
20190916161613 63 275 1.0 6.0 0.00 0.00 0.00 62 1016.9
20190916160050 63 264 2.0 6.0 0.00 0.00 0.00 61 1017.0
20190916154614 62 308 3.0 5.0 0.00 0.00 0.00 62 1017.2
20190916153032 62 298 1.0 4.0 0.00 0.00 0.00 66 1017.4
20190916151526 61 297 2.0 6.0 0.00 0.00 0.00 64 1017.6
20190916150020 61 279 1.0 5.0 0.00 0.00 0.00 65 1017.8
20190916144523 60 300 1.0 5.0 0.00 0.00 0.00 67 1017.9
20190916143009 59 282 2.0 4.0 0.00 0.00 0.00 68 1018.2
20190916141515 59 274 2.0 6.0 0.00 0.00 0.00 67 1018.3
20190916140050 59 292 2.0 7.0 0.00 0.00 0.00 70 1018.4
20190916134533 58 301 0.0 3.0 0.00 0.00 0.00 73 1018.6
20190916133005 58 303 1.0 4.0 0.00 0.00 0.00 75 1018.7
20190916131504 58 281 0.0 5.0 0.00 0.00 0.00 77 1018.5
20190916130002 58 300 0.0 3.0 0.00 0.00 0.00 79 1018.6
20190916124813 57 299 1.0 4.0 0.00 0.00 0.00 81 1018.6
20190916123145 56 271 0.0 3.0 0.00 0.00 0.00 84 1018.5
20190916121651 55 305 0.0 1.0 0.00 0.00 0.00 87 1018.6
20190916120312 55 305 0.0 0.0 0.00 0.00 0.00 90 1018.4
20190916114744 54 305 0.0 0.0 0.00 0.00 0.00 88 1018.5
20190916113145 54 305 0.0 0.0 0.00 0.00 0.00 90 1018.5
20190916111647 54 305 0.0 0.0 0.00 0.00 0.00 90 1018.5
20190916110413 54 305 0.0 0.0 0.00 0.00 0.00 90 1018.3
20190916104633 55 305 0.0 0.0 0.00 0.00 0.00 91 1018.3
20190916103215 55 305 0.0 0.0 0.00 0.00 0.00 91 1018.3
20190916101714 56 305 0.0 0.0 0.00 0.00 0.00 89 1018.0
20190916100106 56 305 0.0 0.0 0.00 0.00 0.00 88 1017.7
20190916094543 56 305 0.0 0.0 0.00 0.00 0.00 89 1017.5
20190916093147 56 305 0.0 0.0 0.00 0.00 0.00 89 1017.5
20190916091545 57 305 0.0 0.0 0.00 0.00 0.00 89 1017.3
20190916090216 57 305 0.0 0.0 0.00 0.00 0.00 91 1017.4
20190916084556 57 305 0.0 0.0 0.00 0.00 0.00 91 1017.3
20190916083116 57 305 0.0 0.0 0.00 0.00 0.00 92 1017.2
20190916081602 56 305 0.0 0.0 0.00 0.00 0.00 94 1017.5
20190916080104 56 305 0.0 0.0 0.00 0.00 0.00 93 1017.3
20190916074638 56 305 0.0 0.0 0.00 0.00 0.00 94 1017.1
20190916073101 56 305 0.0 0.0 0.00 0.00 0.00 93 1016.9
20190916071600 57 305 0.0 0.0 0.00 0.00 0.00 92 1016.7
20190916070046 57 305 0.0 0.0 0.00 0.00 0.00 92 1016.6